Location: Basses Si�yes
(44.0835°N, 6.2037°E)
Time: 00:25:55
(UTC+00:00)

Cosmos 841 Rocket - Pass Details

Date: 27 February 2020
Orbit: 746 x 773 km, 74.0° (Epoch: 09 April)

Event Time Altitude Azimuth Distance (km) Brightness Sun altitude
Rises 18:58:54 0° 191° (S) 3,176 6.8 -18.5°
Reaches altitude 10° 19:01:15 10° 189° (S) 2,258 6.0 -18.9°
Maximum altitude 19:06:19 68° 107° (ESE) 810 3.3 -19.8°
Drops below altitude 10° 19:11:27 10° 26° (NNE) 2,288 5.8 -20.7°
Sets 19:13:51 0° 24° (NNE) 3,221 6.6 -21.2°
